Dewpoint
5 5 5 5 5 6 6 5 4 3 2 -1 -2 -2 -2 -2 -2 -1 -1 -1 1 0 -1 -1 -1 -1 -2 -2 -4 -6 -7 -8 -7 2 4 5 1 -2 -1 -1 -4 -7 -1
8 7 5 5 3 0 3 4 3 -1 -1 -1 -1 -1 -1 -2 -3 -2 -2 -2 0 0 -0 -0 -1 -1 -1 -1 -1 -3 -3 -6 -8 -7 -1 3 5 3 1 1 0 -2 -7
7 7 6 4 2 0 4 -2 -3 -2 0 -0 -1 -1 -1 -2 -3 -4 -3 -2 -2 -1 0 0 -0 -0 -1 -2 -2 -3 -3 -2 -3 -6 -6 -3 2 5 4 4 4 1 -2
3 3 0 -2 -2 -1 -0 1 1 0 0 1 0 -1 -1 -2 -2 -5 -3 -3 -4 -2 1 1 0 -2 -2 -3 -3 -2 -0 0 0 -4 -3 -3 -4 -1 4 4 5 5 3
-3 -2 2 1 -0 -0 1 1 2 1 1 1 0 -1 -3 -2 -4 -6 -6 -7 -5 -1 -2 -2 -1 -2 -3 -3 -2 -2 -2 -1 1 1 0 -6 -5 -4 -3 1 4 6 7
-1 -1 2 2 2 2 2 2 1 1 1 1 -0 -4 -4 -3 -6 -7 -5 -6 -3 -3 -2 -4 -4 -4 -4 -5 -4 -4 -2 -3 -2 0 1 -0 -12 -11 -10 -8 -3 4 7
1 1 1 1 1 1 1 0 -1 -0 0 -0 -3 -5 -6 -5 -6 -8 -8 -8 -9 -9 -7 -7 -6 -6 -7 -7 -6 -5 -5 -5 -1 -1 -1 -2 -3 -20 -24 -23 -20 -7 1
-1 0 -0 -0 0 0 -1 -1 -2 -3 -2 -1 -4 -5 -5 -6 -6 -7 -8 -8 -9 -9 -9 -8 -8 -9 -9 -9 -8 -7 -6 -6 -7 -5 -4 -3 -3 -3 -22 -26 -21 -23 -13
1 -0 -2 -3 -3 -5 -2 -2 -3 -3 -1 -1 -4 -5 -5 -5 -5 -6 -7 -9 -11 -11 -11 -10 -10 -10 -11 -10 -11 -8 -9 -9 -10 -10 -6 -5 -4 -3 -3 -11 -20 -6 -20
-5 -8 -12 -12 -11 -10 -6 -3 -2 -2 -2 -2 -3 -4 -4 -5 -6 -7 -9 -10 -11 -11 -11 -11 -12 -12 -11 -11 -11 -11 -10 -10 -10 -11 -8 -7 -5 -3 -3 -2 -3 -7 -1
-13 -12 -12 -14 -20 -17 -13 -5 -2 -1 -1 -2 -2 -3 -5 -7 -9 -10 -9 -10 -10 -11 -11 -11 -11 -12 -12 -11 -11 -11 -12 -12 -12 -11 -9 -7 -6 -4 -4 -3 -2 -1 -1
-12 -11 -12 -17 -12 -7 -4 -3 -1 -1 -1 -3 -3 -3 -6 -8 -8 -8 -8 -8 -9 -9 -10 -11 -12 -12 -11 -11 -12 -12 -13 -12 -12 -12 -12 -8 -6 -5 -5 -3 -2 -2 -1
-11 -10 -15 -13 -13 -3 -2 -2 -1 -3 -6 -5 -4 -4 -7 -8 -8 -8 -8 -8 -8 -10 -11 -12 -11 -11 -12 -13 -13 -12 -12 -12 -11 -11 -10 -7 -6 -6 -6 -6 -3 -2 -2
-14 -12 -11 -14 -4 -2 -2 -4 -4 -4 -4 -3 -4 -5 -6 -8 -7 -9 -10 -10 -10 -10 -9 -9 -11 -12 -12 -12 -12 -12 -11 -11 -11 -10 -11 -10 -7 -10 -11 -8 -6 -8 -8
-13 -11 -15 -10 -4 -3 -5 -4 -6 -4 -4 -5 -4 -6 -7 -8 -8 -8 -9 -10 -10 -9 -8 -10 -11 -11 -11 -12 -12 -12 -11 -11 -11 -11 -13 -10 -8 -9 -11 -8 -6 -6 -7
-15 -12 -9 -7 -6 -5 -3 -4 -4 -4 -4 -5 -5 -6 -8 -7 -7 -8 -9 -9 -10 -10 -10 -11 -10 -10 -10 -11 -12 -12 -12 -13 -13 -12 -12 -10 -8 -7 -7 -7 -8 -6 -10
-11 -8 -7 -6 -6 -6 -6 -6 -5 -7 -6 -6 -5 -6 -6 -7 -8 -9 -9 -10 -11 -11 -10 -10 -11 -11 -10 -12 -13 -12 -12 -13 -12 -10 -9 -9 -7 -7 -6 -7 -6 -6 -12
-7 -7 -6 -5 -6 -6 -6 -6 -6 -7 -7 -7 -7 -5 -6 -7 -7 -8 -10 -11 -10 -10 -11 -11 -11 -11 -11 -13 -11 -11 -12 -11 -11 -11 -11 -9 -8 -8 -7 -9 -10 -8 -9
-7 -7 -6 -5 -6 -6 -6 -6 -7 -8 -7 -6 -6 -6 -7 -8 -10 -11 -11 -11 -12 -13 -12 -11 -11 -11 -11 -11 -12 -12 -11 -11 -10 -10 -9 -7 -8 -6 -8 -9 -9 -10 -11
-6 -6 -5 -6 -5 -6 -6 -8 -8 -8 -7 -6 -7 -8 -9 -11 -11 -12 -12 -14 -14 -12 -12 -12 -12 -12 -12 -14 -12 -12 -12 -13 -13 -12 -12 -11 -9 -7 -9 -10 -8 -9 -10
-6 -6 -7 -7 -6 -6 -4 -6 -7 -9 -11 -9 -10 -10 -10 -11 -12 -12 -13 -12 -11 -12 -13 -13 -12 -13 -12 -12 -13 -11 -10 -10 -12 -11 -10 -9 -9 -7 -9 -8 -6 -7 -9
-7 -7 -7 -7 -7 -6 -5 -6 -6 -11 -13 -12 -9 -10 -10 -12 -13 -13 -11 -11 -11 -12 -13 -12 -12 -11 -12 -11 -10 -10 -11 -11 -11 -11 -10 -12 -10 -7 -6 -6 -6 -8 -10
-8 -7 -7 -7 -8 -7 -7 -6 -7 -12 -10 -10 -9 -10 -11 -11 -12 -11 -12 -14 -18 -14 -12 -13 -12 -10 -10 -11 -12 -12 -14 -13 -13 -13 -12 -13 -13 -9 -8 -7 -7 -8 -9
-9 -8 -7 -8 -8 -7 -6 -6 -7 -9 -10 -10 -9 -10 -10 -11 -11 -14 -16 -24 -25 -18 -13 -13 -12 -13 -13 -14 -14 -14 -13 -13 -14 -15 -15 -14 -11 -11 -13 -10 -9 -9 -10
-9 -8 -8 -8 -8 -8 -8 -8 -9 -9 -11 -9 -10 -11 -10 -11 -13 -14 -19 -26 -25 -23 -14 -15 -20 -18 -14 -13 -12 -10 -12 -12 -12 -14 -15 -12 -10 -12 -12 -11 -12 -15 -16
-8 -8 -7 -7 -7 -8 -9 -10 -9 -10 -10 -10 -12 -12 -10 -10 -11 -13 -20 -22 -20 -18 -19 -18 -14 -13 -13 -12 -11 -10 -10 -10 -10 -11 -14 -11 -11 -8 -10 -11 -11 -10 -10
Wind_Speed
4 4 9 12 10 6 7 10 11 14 18 20 18 15 16 17 19 17 17 16 21 22 16 19 20 22 23 23 20 19 19 19 20 20 18 17 18 19 16 13 14 16 17
9 8 9 7 7 15 14 14 17 20 17 13 14 16 17 18 16 15 17 17 19 24 21 20 18 21 22 23 24 22 20 21 22 23 21 20 17 19 20 18 15 14 17
8 8 3 7 14 12 15 20 21 20 17 17 14 17 17 17 16 17 19 19 22 22 21 19 21 18 22 26 29 25 21 19 20 23 23 23 22 19 21 22 20 17 16
1 1 7 10 10 11 14 15 15 12 15 17 18 21 19 20 19 19 19 18 21 21 18 17 17 20 22 23 24 22 21 20 22 21 24 26 26 25 22 24 23 21 19
3 4 8 11 13 9 9 13 14 17 21 20 20 21 25 22 19 19 22 23 16 17 15 14 16 17 17 15 16 20 23 20 21 23 22 27 29 29 28 23 26 24 23
6 5 4 11 13 11 12 14 20 18 20 20 22 22 22 18 17 14 14 9 7 12 14 19 21 17 16 18 18 17 18 24 23 20 20 24 27 30 32 30 24 27 26
7 11 5 9 10 12 15 19 19 18 18 22 21 18 19 21 15 18 17 17 18 17 16 19 19 19 23 25 23 18 20 22 18 20 23 26 28 29 30 32 30 28 28
8 6 12 14 14 17 17 16 19 22 20 16 17 20 21 22 15 19 21 24 24 22 23 20 22 22 22 19 21 20 16 20 22 22 23 26 27 28 28 29 31 28 30
9 8 10 13 16 17 17 19 20 18 16 14 14 16 22 16 24 19 20 20 21 20 22 21 19 20 21 19 25 19 24 26 27 28 26 27 28 28 29 29 28 28 28
11 13 14 16 18 18 19 17 15 19 20 14 14 14 18 20 24 27 15 19 21 20 20 21 20 17 18 23 22 23 24 24 29 35 32 29 28 27 29 28 28 28 24
11 12 13 17 18 17 15 16 15 17 17 16 14 16 16 16 17 21 26 21 23 22 24 23 20 22 22 22 23 23 24 30 32 32 34 32 30 28 29 27 26 27 27
12 12 16 17 16 13 12 13 17 16 16 19 22 20 14 16 17 19 22 25 25 24 22 24 22 22 22 25 26 29 32 33 35 37 38 32 29 29 28 24 25 26 25
11 13 17 15 14 9 14 16 18 20 22 20 16 12 12 16 16 18 21 27 25 28 27 26 23 24 28 30 30 27 30 33 33 30 30 29 30 30 29 25 24 25 25
11 14 14 13 10 13 15 18 15 14 14 15 16 9 15 14 15 17 20 22 29 30 26 27 26 28 28 26 24 28 29 31 35 33 33 33 32 35 29 25 24 27 27
11 11 14 10 9 16 16 17 17 15 19 17 16 15 14 12 16 16 18 20 23 30 30 29 31 28 25 29 28 32 35 36 36 34 33 28 31 29 29 25 24 25 26
12 11 12 12 12 11 13 15 17 17 18 18 14 13 13 13 17 16 19 23 25 29 34 30 29 28 26 31 35 38 39 38 36 31 27 29 27 27 29 26 26 26 25
11 12 12 13 13 12 14 17 18 19 18 17 12 16 19 15 17 20 23 23 25 26 30 31 31 30 32 41 39 33 32 33 29 27 27 27 29 29 27 23 23 27 24
11 13 14 13 12 14 16 17 15 15 16 15 20 14 14 16 19 21 21 23 23 26 29 32 34 35 36 31 28 29 29 28 28 28 25 30 28 28 26 16 17 24 25
14 13 13 12 13 14 18 12 12 13 15 13 13 18 22 20 23 24 27 28 31 31 26 28 32 30 27 26 29 27 27 26 25 23 24 26 26 24 14 21 19 19 21
14 13 13 13 15 15 13 12 12 12 14 14 17 15 18 19 22 25 29 30 25 23 24 23 26 27 28 28 25 27 28 27 30 26 26 26 26 24 12 14 18 19 21
17 13 14 15 17 19 14 15 15 17 18 15 14 16 18 21 25 25 24 24 24 24 23 22 26 27 27 26 27 26 27 29 28 22 26 22 24 20 14 15 19 16 13
14 15 15 16 17 15 17 20 17 17 15 15 15 19 21 17 18 19 19 19 23 25 25 27 31 31 30 26 25 25 28 28 30 22 24 24 22 12 5 11 8 10 17
18 18 17 16 18 18 21 20 16 16 18 14 17 18 19 12 18 21 22 23 23 18 17 21 26 23 25 25 29 32 33 31 29 25 23 26 22 21 15 10 8 10 17
18 19 19 18 17 19 18 19 18 21 19 15 19 19 15 14 20 21 22 24 23 19 14 18 21 24 25 31 25 22 22 23 25 25 24 26 23 21 16 15 13 14 18
20 20 19 19 17 16 16 20 21 21 18 18 18 15 13 18 20 20 23 23 23 21 15 21 25 20 18 17 16 20 22 21 23 21 18 21 22 23 18 16 18 16 18
19 19 19 19 17 17 19 23 23 20 20 18 15 13 13 17 20 22 22 22 23 22 25 23 18 20 15 15 16 18 19 21 22 25 18 18 20 14 15 16 17 15 17
Wind_Direction
279 302 309 304 309 311 315 300 293 297 298 312 313 328 320 332 330 323 307 306 321 319 321 320 320 322 321 316 310 303 300 299 299 297 289 274 272 278 280 285 282 277 271
272 280 311 356 346 327 294 290 297 306 312 314 335 318 319 322 316 326 320 313 311 311 306 312 307 310 317 320 318 315 307 298 291 290 292 288 272 264 269 271 274 275 272
287 281 251 291 304 309 300 305 310 315 334 328 307 314 317 313 311 307 306 307 311 311 302 307 307 304 305 311 314 316 313 303 290 286 286 285 284 273 260 265 264 266 269
168 328 308 312 308 300 328 331 336 303 304 316 319 319 314 293 295 310 307 290 290 312 308 305 317 323 318 314 312 311 322 327 321 291 282 281 280 282 274 260 262 260 259
17 12 334 320 328 337 314 315 296 301 316 312 318 315 305 302 299 303 296 307 300 296 293 307 297 301 323 311 325 319 314 320 312 317 310 280 278 279 279 275 263 262 257
353 41 17 338 352 337 305 295 308 316 315 305 300 302 308 308 305 311 315 315 303 288 292 306 307 296 288 298 314 326 318 305 313 308 312 307 283 280 280 280 271 264 261
3 2 320 300 297 289 292 301 310 305 296 305 311 305 308 305 295 302 303 302 309 317 319 306 300 302 302 304 309 321 314 308 301 302 308 312 309 285 280 280 279 266 266
320 308 309 312 302 297 302 308 299 302 305 293 312 310 319 313 309 299 303 314 315 303 311 303 305 312 308 304 313 312 310 308 307 309 311 313 312 308 282 275 279 276 264
330 326 310 305 301 314 302 298 305 310 293 284 310 311 321 321 320 318 308 308 311 313 302 313 312 306 309 310 316 303 303 299 305 301 310 313 310 308 306 285 275 283 273
283 289 294 290 289 289 291 300 297 293 296 300 292 291 289 309 325 321 319 312 308 312 320 317 313 313 308 313 317 311 312 300 297 302 308 311 307 305 306 299 291 283 288
306 306 299 301 310 309 307 302 302 280 276 276 282 299 314 313 308 316 320 321 311 304 301 315 308 303 312 314 310 310 303 300 301 301 302 306 305 302 306 301 294 291 290
306 304 303 315 318 321 315 291 273 273 277 290 288 296 303 312 317 319 316 314 312 311 308 311 314 310 312 307 307 304 301 298 299 299 300 302 295 298 304 298 288 288 286
302 296 309 317 321 319 281 273 276 289 293 296 289 273 288 284 307 306 313 311 308 307 306 302 305 308 309 308 306 301 299 300 301 301 300 301 293 296 299 289 289 289 287
293 300 306 313 321 280 283 289 286 307 308 304 299 294 281 291 302 306 306 308 308 304 306 304 308 306 307 307 298 302 301 300 297 296 292 293 295 291 290 288 283 285 282
290 291 302 308 297 286 298 289 304 304 300 299 266 277 285 295 300 302 303 305 308 310 305 306 306 310 301 303 297 296 295 297 297 295 293 296 301 292 292 295 283 284 279
300 306 305 298 282 289 299 302 299 295 294 295 289 285 276 275 291 312 302 297 305 301 299 303 306 305 299 297 299 299 297 295 299 297 297 301 300 292 294 293 287 280 280
309 300 294 290 295 294 291 293 295 303 299 298 295 273 298 314 301 305 313 305 301 301 301 303 302 304 302 303 301 302 304 304 305 302 297 298 291 287 290 284 287 279 273
299 297 296 297 301 299 291 286 291 293 292 286 283 299 288 296 306 310 305 299 294 288 295 306 301 305 309 311 309 307 306 304 306 304 297 294 292 293 290 271 298 278 278
292 299 293 291 292 290 298 302 299 288 289 308 308 294 304 309 304 298 290 289 293 295 294 296 299 306 310 307 307 309 307 312 309 312 308 308 305 282 270 262 282 281 273
288 301 293 292 283 293 281 275 276 277 290 297 301 306 304 301 297 296 297 305 308 306 304 303 303 308 309 311 311 312 313 311 309 310 304 302 302 298 243 273 267 279 280
297 301 299 295 286 290 280 270 264 289 291 284 295 297 295 294 295 301 308 313 309 315 315 313 309 310 314 313 315 311 308 310 309 320 310 321 319 306 239 243 257 267 307
293 287 290 289 290 285 277 285 275 296 299 297 292 291 292 299 298 304 304 300 310 308 307 309 309 300 302 304 307 312 310 317 315 312 316 315 331 312 274 291 275 286 317
280 283 288 284 285 276 280 281 277 299 288 296 296 291 291 291 283 286 289 301 309 306 297 305 309 304 298 308 304 302 300 299 298 303 312 307 319 314 339 321 325 318 308
284 283 284 286 278 277 279 282 287 291 288 296 293 297 290 287 282 298 307 311 317 316 308 310 296 294 295 299 303 299 303 299 296 293 294 296 302 298 301 302 301 304 308
284 280 280 282 266 270 283 281 288 285 291 301 301 295 289 288 297 305 313 318 320 323 310 296 301 302 304 307 311 311 304 304 301 303 300 298 300 296 282 283 289 293 302
281 284 284 270 266 264 273 278 279 284 293 300 295 292 284 290 295 307 314 318 321 327 325 329 335 334 323 320 318 315 301 286 292 298 308 304 296 326 281 278 282 282 290
Height
1573 1572 1573 1575 1574 1574 1573 1572 1572 1570 1571 1570 1568 1566 1565 1563 1563 1561 1559 1558 1555 1554 1552 1549 1547 1545 1544 1543 1544 1544 1543 1541 1540 1538 1537 1537 1537 1537 1537 1537 1536 1536 1536
1569 1570 1571 1572 1572 1571 1570 1569 1569 1568 1567 1567 1566 1564 1563 1562 1561 1559 1557 1555 1553 1551 1548 1546 1544 1543 1541 1540 1539 1539 1538 1538 1537 1536 1534 1533 1532 1533 1532 1532 1533 1533 1533
1569 1569 1569 1569 1568 1568 1568 1568 1567 1567 1565 1564 1562 1561 1560 1559 1557 1556 1555 1554 1551 1548 1546 1542 1540 1539 1539 1537 1536 1535 1534 1534 1533 1532 1530 1529 1528 1528 1528 1527 1528 1528 1528
1568 1568 1568 1567 1568 1568 1567 1566 1566 1564 1562 1561 1559 1558 1557 1554 1554 1553 1552 1550 1549 1547 1541 1539 1538 1534 1535 1534 1533 1532 1532 1531 1528 1528 1526 1524 1523 1523 1523 1524 1523 1523 1524
1566 1567 1566 1565 1566 1566 1566 1565 1562 1561 1558 1557 1556 1555 1552 1551 1550 1549 1548 1547 1547 1545 1541 1538 1536 1534 1533 1530 1529 1529 1530 1527 1525 1524 1521 1520 1518 1517 1517 1519 1518 1518 1519
1564 1565 1565 1564 1564 1564 1563 1561 1559 1558 1556 1553 1551 1550 1548 1546 1547 1546 1544 1541 1540 1539 1537 1535 1531 1530 1528 1527 1525 1526 1525 1524 1522 1520 1517 1514 1512 1512 1511 1511 1513 1512 1513
1562 1563 1563 1562 1562 1560 1559 1558 1556 1554 1552 1550 1547 1545 1544 1543 1543 1543 1539 1537 1535 1535 1534 1532 1527 1526 1524 1523 1522 1523 1523 1521 1517 1515 1512 1509 1505 1505 1505 1504 1504 1506 1506
1561 1561 1560 1559 1558 1556 1555 1554 1552 1550 1548 1547 1545 1543 1539 1539 1539 1535 1534 1533 1532 1531 1529 1528 1525 1522 1520 1519 1519 1520 1519 1515 1513 1510 1508 1505 1501 1498 1497 1497 1496 1496 1498
1559 1559 1558 1556 1555 1553 1551 1550 1548 1547 1544 1543 1544 1543 1538 1535 1533 1533 1532 1532 1530 1528 1526 1524 1522 1519 1518 1516 1516 1515 1514 1511 1507 1506 1503 1501 1498 1495 1491 1489 1489 1489 1490
1557 1556 1554 1551 1550 1549 1547 1546 1545 1544 1541 1540 1539 1539 1536 1534 1531 1527 1528 1527 1526 1523 1522 1521 1518 1516 1514 1513 1512 1511 1509 1505 1502 1499 1497 1495 1493 1491 1487 1484 1482 1481 1482
1553 1552 1549 1547 1545 1544 1542 1542 1541 1539 1537 1536 1535 1534 1534 1533 1532 1529 1522 1522 1521 1520 1518 1517 1514 1512 1511 1510 1508 1507 1504 1500 1497 1495 1492 1490 1487 1485 1481 1479 1478 1476 1474
1550 1548 1545 1543 1541 1540 1539 1538 1535 1534 1533 1532 1532 1531 1532 1530 1529 1526 1522 1518 1517 1515 1515 1513 1511 1509 1507 1505 1503 1501 1498 1494 1491 1489 1487 1484 1482 1479 1476 1474 1473 1471 1469
1547 1544 1541 1539 1537 1537 1535 1533 1532 1531 1530 1529 1527 1527 1527 1526 1525 1523 1520 1516 1514 1511 1509 1509 1507 1506 1504 1501 1499 1496 1492 1489 1485 1482 1480 1478 1476 1473 1471 1468 1467 1464 1462
1542 1540 1537 1535 1534 1533 1531 1529 1528 1528 1527 1525 1524 1524 1523 1521 1522 1520 1518 1515 1509 1507 1505 1503 1503 1502 1500 1497 1493 1490 1485 1482 1479 1477 1474 1473 1469 1467 1465 1463 1461 1459 1457
1538 1536 1533 1532 1532 1529 1528 1526 1525 1524 1523 1521 1521 1519 1520 1518 1517 1516 1515 1513 1509 1502 1499 1498 1496 1496 1494 1490 1486 1482 1479 1475 1472 1470 1468 1465 1463 1460 1459 1457 1456 1454 1452
1533 1531 1530 1529 1528 1527 1525 1524 1523 1522 1520 1518 1518 1518 1515 1513 1512 1512 1510 1508 1506 1502 1494 1494 1492 1490 1486 1481 1477 1475 1471 1467 1464 1462 1460 1458 1456 1454 1452 1450 1449 1449 1447
1530 1528 1527 1526 1525 1524 1524 1522 1521 1519 1518 1515 1514 1513 1511 1510 1510 1507 1505 1504 1501 1498 1491 1487 1485 1482 1477 1474 1470 1468 1465 1461 1458 1456 1454 1452 1450 1448 1447 1445 1443 1442 1442
1526 1525 1525 1523 1522 1522 1519 1518 1517 1516 1516 1513 1511 1509 1507 1506 1504 1502 1501 1497 1494 1490 1486 1480 1478 1474 1472 1469 1466 1462 1459 1456 1453 1451 1448 1444 1442 1441 1440 1439 1438 1437 1436
1523 1522 1521 1520 1519 1517 1515 1514 1513 1510 1508 1509 1509 1506 1503 1502 1500 1497 1494 1491 1488 1485 1481 1476 1472 1470 1468 1465 1460 1457 1454 1451 1448 1446 1443 1439 1436 1434 1433 1434 1434 1432 1430
1521 1518 1518 1517 1515 1513 1512 1511 1509 1508 1508 1504 1504 1502 1500 1497 1494 1491 1489 1486 1482 1479 1476 1473 1469 1466 1463 1460 1457 1453 1449 1446 1442 1440 1437 1435 1432 1428 1428 1429 1429 1427 1425
1517 1515 1515 1514 1512 1510 1508 1507 1506 1504 1503 1502 1500 1498 1496 1492 1489 1486 1484 1480 1477 1475 1472 1469 1466 1462 1458 1455 1453 1450 1446 1442 1437 1436 1432 1430 1426 1422 1423 1425 1424 1423 1422
1513 1512 1511 1510 1508 1504 1503 1502 1500 1500 1499 1498 1496 1493 1491 1488 1485 1482 1479 1476 1474 1471 1468 1465 1461 1458 1455 1452 1449 1446 1442 1439 1434 1432 1429 1426 1424 1421 1420 1417 1419 1419 1418
1509 1507 1506 1505 1504 1501 1500 1498 1496 1495 1495 1493 1491 1488 1486 1484 1480 1478 1476 1473 1470 1467 1465 1463 1458 1454 1451 1448 1445 1441 1439 1436 1432 1429 1428 1424 1423 1419 1417 1417 1417 1415 1416
1504 1503 1502 1501 1499 1497 1496 1495 1492 1491 1491 1488 1486 1484 1481 1479 1475 1473 1470 1467 1464 1461 1460 1459 1453 1449 1446 1443 1441 1437 1434 1430 1427 1426 1425 1421 1421 1418 1416 1418 1417 1415 1414
1499 1496 1495 1494 1492 1491 1491 1492 1488 1487 1486 1483 1481 1479 1477 1475 1471 1470 1466 1462 1459 1457 1454 1451 1448 1443 1441 1438 1436 1433 1429 1428 1423 1422 1421 1419 1418 1415 1415 1414 1415 1414 1412
1493 1492 1489 1489 1488 1487 1487 1487 1486 1482 1481 1478 1476 1475 1473 1471 1468 1466 1462 1459 1455 1452 1448 1444 1441 1438 1437 1434 1432 1430 1426 1424 1422 1419 1418 1417 1415 1414 1411 1412 1412 1411 1410